星链-3399 (STARLINK-3399 )

导读 | 豆包AI

STARLINK-3399是美国SpaceX公司星链(Starlink)星座的卫星,于2022年1月19日发射升空,属于星链第一代v1.5批次卫星。它运行在近地轨道,配备氪离子推进器与相控阵通信天线,可提供高速低延迟卫星互联网服务,为全球偏远地区提供宽带接入,是SpaceX构建全球卫星互联网星座计划的组成部分,目前在轨正常运行服务中。

基本信息
目录编号:
51121
目录名称:
STARLINK-3399
国际标识:
2022-005T
轨道中心:
EARTH
卫星名称:
星链-3399
卫星全名:
星链-3399 (STARLINK-3399 )
卫星状态:
在轨 (已飞行1515 天)
发射日期:
2022-01-19 UTC
国别 :
美国 (US)
星等 :
--
轨道信息
数据来源 国际轨道数据 AOE轨道数据
星历时间 2026-03-14T13:47:14+0800
14小时前
查看轨道信息
2026-03-12T17:00:00+0800
2天前
查看轨道信息
半长轴 6917.887km 6917.885km
偏心率 0.0001245 0.0001503
轨道倾角 53.216° 53.216°
近地点辐角 86.991° 77.465°
升交点赤经 268.700° 277.079°
平近点角 273.123° 220.656°
近地点 538.888km 538.708km
远地点 540.612km 540.788km
周期 95.438分钟 95.438分钟
每日圈数 15.08838 15.088386
详细信息
固有亮度:
5
最大亮度:
2.5
卫星平台:
Starlink v1.5
覆盖范围:
全球
运营商:
太空探索技术公司
运营商所在国:
美国
制造商(研发单位):
太空探索技术公司
制造商所在国:
美国
使用方式:
暂无
卫星简介
星链(Starlink)计划是由太空探索技术公司(SpaceX)提出的一个巨型低轨卫星互联网星座项目,计划在2019年至2024年间在太空搭建由约1.2万颗卫星组成的“星链”网络,其中1584颗将部署在地球上空550千米处的近地轨道,并从2020年开始工作。该卫星仍在工作。
2D轨道图
3D轨道图
轨道高度分析图
轨道倾角分析图
轨道综合分析图
查看轨道综合分析图